Simultaneous Nadir Overpasses (SNOs) Predictions

Prediction of SNOs between METOP-C and LANDSAT-8 Satellite Orbit:

Table of predicted SNOs for the next 14.0 days since TLE Epoch: 2/20/2021
Index Date (METOP-C) Time (METOP-C) Lat,Lon (METOP-C) SZA (METOP-C ) Date (LANDSAT-8) Time (LANDSAT-8) Lat,Lon (LANDSAT-8) SZA (LANDSAT-8 ) Distance(km) Time Diff (sec)
1 02/20/2021 20:41:26 81.05, -92.07 93.19 02/20/2021 20:42:36 81.05, -92.11 93.21 0.93 70
2 02/20/2021 21:32:05 -81.09, 76.32 86.70 02/20/2021 21:32:01 -81.09, 76.15 86.72 2.89 4
3 02/23/2021 16:15:46 81.08, -25.09 92.24 02/23/2021 16:16:48 81.08, -25.25 92.25 2.77 62
4 02/23/2021 17:06:27 -81.09, 142.56 87.74 02/23/2021 17:06:14 -81.10, 142.67 87.73 2.05 13
5 02/26/2021 11:50:10 81.05, 40.76 91.14 02/26/2021 11:51:03 81.05, 40.85 91.17 1.54 53
6 02/26/2021 12:40:49 -81.10,-150.83 88.74 02/26/2021 12:40:28 -81.10,-150.84 88.75 0.37 21
7 03/01/2021 07:24:31 81.08, 107.73 90.16 03/01/2021 07:25:16 81.08, 107.64 90.17 1.44 45
8 03/01/2021 08:15:11 -81.10, -84.24 89.77 03/01/2021 08:14:42 -81.10, -84.38 89.80 2.38 29
9 03/04/2021 02:58:53 81.07, 173.94 89.08 03/04/2021 02:59:29 81.08, 174.05 89.11 1.99 36



Historial Predications of SNOs between METOP-C and LANDSAT-8
